[[{"header":{"parameterUnit":"m.s-1","parameterCategory":1,"la1":30.2991,"la2":30.254,"lo1":-89.0895,"lo2":-89.0444,"dy":0.0017,"dx":0.0017,"nx":28,"ny":28,"refTime":"2025-01-31T03:00:00:Z","depth":0,"parameterNumber":2,"parameterNumberName":"U-component_of_WINDS"},"data":[0,0,0,0,0,0,0,0,0,0,0,0,0,0,0,0,0,0,0,0,0,0,0,0,0,0,0,0,0,0,0,0,0,0,0,0,0,0,0,0,0,0,0,0,0,0,0,0,0,0,0,0,0,0,0,0,0,0,-4.2335,-4.2337,0,-4.257,-4.2573,-4.2576,-4.2643,-4.2642,-4.2641,-4.2639,-4.2883,-4.2891,-4.2898,0,0,0,0,0,0,0,0,0,0,0,0,0,-4.1947,-4.1954,-4.2334,-4.2337,-4.234,-4.257,-4.2573,-4.2576,-4.2643,-4.2642,-4.264,-4.2639,-4.2881,-4.289,-4.2899,0,0,0,0,0,0,0,0,0,0,0,0,0,-4.2142,-4.1956,-4.2334,-4.2402,-4.241,-4.2569,-4.2573,-4.2577,-4.2644,-4.2642,-4.264,-4.2638,-4.2878,-4.2889,-4.29,-4.301,0,0,-4.2935,-4.294,0,0,0,0,0,0,0,0,-4.2131,-4.2156,-4.2389,-4.2397,-4.2407,-4.2575,-4.2526,-4.2722,-4.2644,-4.2555,-4.2639,-4.2637,-4.2782,-4.2802,-4.285,-4.3021,-4.3032,-4.2936,-4.2943,-4.2948,-4.2952,0,0,0,0,0,0,0,-4.2117,-4.2147,-4.2428,-4.2392,-4.2403,-4.2421,-4.2447,-4.2563,-4.2677,-4.2563,-4.2568,-4.2595,-4.2787,-4.2839,-4.2856,-4.3035,-4.2936,-4.2946,-4.2953,-4.2958,-4.331,-4.3313,0,0,0,0,0,0,-4.2092,-4.2135,-4.242,-4.2435,-4.2261,-4.243,-4.2459,-4.2523,-4.2676,-4.2697,-4.2596,-4.2597,-4.282,-4.2843,-4.2865,-4.3004,-4.2948,-4.2959,-4.2966,-4.3308,-4.3311,-4.3314,0,0,0,0,0,0,-4.2083,-4.2117,-4.2411,-4.2287,-4.2325,-4.2439,-4.2511,-4.2529,-4.2581,-4.2701,-4.2722,-4.2628,-4.282,-4.2849,-4.2974,-4.3014,-4.2964,-4.2975,-4.3305,-4.3309,-4.3312,-4.3282,0,0,0,0,0,0,-4.2072,-4.2113,-4.2155,-4.2287,-4.2332,-4.2514,-4.2513,-4.2535,-4.26,-4.2603,-4.2736,-4.2757,-4.282,-4.2956,-4.2985,-4.3029,-4.2984,-4.3302,-4.3307,-4.3311,-4.328,-4.3284,-4.3288,0,0,0,0,0,-4.2058,-4.2137,-4.2156,-4.2191,-4.2386,-4.2516,-4.2542,-4.2612,-4.2603,-4.2647,-4.2724,-4.2752,-4.3005,-4.2968,-4.3002,-4.3049,-4.33,-4.3305,-4.3311,-4.3278,-4.3284,-4.3288,0,0,0,0,0,0,-4.2007,-4.2155,-4.2179,-4.2303,-4.2396,-4.2527,-4.2584,-4.2616,-4.2714,-4.2713,-4.2798,-4.2828,-4.2946,-4.3011,-4.2967,-4.3164,-4.3153,-4.3166,-4.3117,-4.3123,-4.3127,-4.3108,-4.2993,0,0,0,0,0,-4.201,-4.2102,-4.2228,-4.2325,-4.2371,-4.2469,-4.2529,-4.2575,-4.2676,-4.2716,-4.2803,-4.29,-4.3002,-4.3066,-4.3166,-4.3291,-4.3321,-4.334,-4.3344,-4.3347,-4.3356,-4.3428,-4.3438,-4.3332,-4.3332,-4.3332,0,0,-4.2017,-4.211,-4.2163,-4.2317,-4.2395,-4.249,-4.2502,-4.2601,-4.2673,-4.2731,-4.2854,-4.2921,-4.3036,-4.3161,-4.322,-4.3218,-4.3393,-4.3354,-4.3355,-4.3363,-4.3434,-4.3444,-4.3453,-4.3335,-4.3335,-4.3334,0,0,-4.2079,-4.2158,-4.2249,-4.2327,-4.2444,-4.251,-4.2531,-4.2659,-4.2705,-4.283,-4.2876,-4.2964,-4.3136,-4.3216,-4.3279,-4.3374,-4.3404,-4.3405,-4.3425,-4.3494,-4.3502,-4.351,-4.3544,-4.3555,-4.3414,-4.3414,-4.3414,0,-4.2073,-4.2216,-4.2291,-4.2389,-4.2456,-4.2513,-4.2606,-4.2679,-4.2823,-4.2869,-4.2865,-4.3084,-4.3165,-4.331,-4.3333,-4.3383,-4.3411,-4.3389,-4.3495,-4.3504,-4.3512,-4.3545,-4.3558,-4.3413,-4.3413,-4.3414,-4.3414,0,-4.2204,-4.2303,-4.2362,-4.25,-4.2574,-4.2668,-4.2759,-4.2825,-4.2867,-4.2933,-4.306,-4.316,-4.3282,-4.332,-4.3362,-4.3472,-4.3467,-4.3478,-4.3468,-4.352,-4.3553,-4.3566,-4.3412,-4.3413,-4.3413,-4.3413,0,0,-4.2237,-4.2417,-4.2437,-4.2501,-4.2636,-4.2715,-4.2813,-4.2932,-4.2987,-4.3087,-4.3172,-4.3318,-4.3329,-4.3401,-4.3453,-4.3513,-4.3582,-4.3517,-4.3521,-4.3525,-4.3711,-4.3701,-4.3714,-4.3604,-4.3607,-4.3609,-4.3701,0,-4.2315,-4.2491,-4.2563,-4.2706,-4.2799,-4.2857,-4.2943,-4.3036,-4.3102,-4.3192,-4.3265,-4.3367,-4.3374,-4.3418,-4.3481,-4.356,-4.3621,-4.3555,-4.3684,-4.3688,-4.3652,-4.3731,-4.3721,-4.3803,-4.3715,-4.3717,-4.3718,0,-4.2429,-4.2528,-4.268,-4.2806,-4.2848,-4.2923,-4.3039,-4.3124,-4.3232,-4.3275,-4.3357,-4.3405,-4.3512,-4.3498,-4.3647,-4.3601,-4.3659,-4.3706,-4.3711,-4.3725,-4.3705,-4.3746,-4.3831,-4.3842,-4.3739,-4.3738,-4.3736,0,-4.2437,-4.2609,-4.2722,-4.2775,-4.2925,-4.2977,-4.3042,-4.3148,-4.3216,-4.3318,-4.3362,-4.3476,-4.3537,-4.3625,-4.3703,-4.3685,-4.3846,-4.3837,-4.3885,-4.3883,-4.3915,-4.3911,-4.4008,-4.3954,-4.3954,-4.3954,-4.3953,0,-4.2515,-4.2606,-4.2728,-4.2797,-4.2902,-4.2985,-4.3086,-4.3155,-4.325,-4.3335,-4.3394,-4.3473,-4.3572,-4.3665,-4.3728,-4.3842,-4.387,-4.3909,-4.3924,-4.3903,-4.3898,-4.394,-4.3936,-4.3957,-4.3956,-4.3956,-4.3955,0,-4.254,-4.2626,-4.2753,-4.2885,-4.2921,-4.2992,-4.3105,-4.3176,-4.3245,-4.3353,-4.3383,-4.3492,-4.3604,-4.3692,-4.3838,-4.3881,-4.4001,-4.4019,-4.3964,-4.3972,-4.4015,-4.4009,-4.4141,-4.4163,-4.4095,-4.4095,-4.4096,0,-4.2584,-4.2655,-4.2795,-4.2856,-4.292,-4.3018,-4.3087,-4.3172,-4.3242,-4.3372,-4.3428,-4.3544,-4.3641,-4.3818,-4.3911,-4.4024,-4.4044,-4.4083,-4.4061,-4.4038,-4.4044,-4.4038,-4.4046,-4.4084,-4.4085,-4.4085,-4.4085,0,-4.2652,-4.2691,-4.2788,-4.29,-4.2981,-4.3074,-4.3168,-4.3215,-4.3319,-4.3395,-4.351,-4.3585,-4.3735,-4.385,-4.3973,-4.4042,-4.4081,-4.4092,-4.4109,-4.4087,-4.4052,-4.4071,-4.397,-4.4088,-4.4087,-4.4087,-4.4087,-4.4087,-4.2688,-4.2754,-4.2862,-4.2969,-4.3049,-4.3136,-4.3209,-4.3288,-4.3385,-4.3513,-4.3559,-4.3677,-4.3787,-4.3955,-4.4026,-4.4121,-4.4123,-4.4147,-4.4154,-4.4158,-4.4155,-4.4038,-4.4144,-4.4144,-4.4144,-4.4144,-4.4144,0,-4.2758,-4.2831,-4.2928,-4.3058,-4.3143,-4.3173,-4.3279,-4.3348,-4.3451,-4.3549,-4.3644,-4.3777,-4.389,-4.3993,-4.4111,-4.4167,-4.4188,-4.4195,-4.4191,-4.4207,-4.4147,-4.412,-4.4176,-4.4176,-4.4176,-4.4176,-4.4176,-4.4176,-4.2804,-4.2918,-4.297,-4.3125,-4.3199,-4.3315,-4.3373,-4.3455,-4.3533,-4.3679,-4.3772,-4.3839,-4.394,-4.4066,-4.4171,-4.4199,-4.4239,-4.4241,-4.4273,-4.4215,-4.4211,-4.4206,-4.4181,-4.425,-4.425,-4.4325,-4.4326,-4.4326]},{"header":{"parameterUnit":"m.s-1","parameterCategory":1,"la1":30.2991,"la2":30.254,"lo1":-89.0895,"lo2":-89.0444,"dy":0.0017,"dx":0.0017,"nx":28,"ny":28,"refTime":"2025-01-31T03:00:00:Z","depth":0,"parameterNumber":3,"parameterNumberName":"V-component_of_WINDS"},"data":[0,0,0,0,0,0,0,0,0,0,0,0,0,0,0,0,0,0,0,0,0,0,0,0,0,0,0,0,0,0,0,0,0,0,0,0,0,0,0,0,0,0,0,0,0,0,0,0,0,0,0,0,0,0,0,0,0,0,4.3623,4.3623,0,4.3652,4.3652,4.3653,4.3658,4.3658,4.3657,4.3657,4.3685,4.3686,4.3687,0,0,0,0,0,0,0,0,0,0,0,0,0,4.3571,4.3572,4.3623,4.3623,4.3623,4.3652,4.3652,4.3653,4.3658,4.3658,4.3657,4.3657,4.3684,4.3686,4.3687,0,0,0,0,0,0,0,0,0,0,0,0,0,4.3596,4.3572,4.3623,4.3629,4.363,4.3652,4.3652,4.3653,4.3658,4.3658,4.3657,4.3657,4.3684,4.3685,4.3687,4.3703,0,0,4.3691,4.3692,0,0,0,0,0,0,0,0,4.3595,4.3598,4.3628,4.3629,4.363,4.3651,4.3644,4.367,4.3658,4.3647,4.3657,4.3657,4.3674,4.3676,4.3682,4.3704,4.3705,4.3691,4.3692,4.3693,4.3693,0,0,0,0,0,0,0,4.3593,4.3597,4.3634,4.3628,4.363,4.3631,4.3634,4.3649,4.3662,4.3648,4.3649,4.3652,4.3674,4.3681,4.3683,4.3706,4.3691,4.3693,4.3694,4.3694,4.3746,4.3747,0,0,0,0,0,0,4.359,4.3595,4.3633,4.3635,4.3611,4.3632,4.3636,4.3645,4.3662,4.3664,4.3653,4.3652,4.3678,4.3681,4.3684,4.3706,4.3693,4.3694,4.3695,4.3746,4.3746,4.3747,0,0,0,0,0,0,4.3589,4.3593,4.3632,4.3615,4.362,4.3634,4.3643,4.3645,4.3652,4.3665,4.3667,4.3657,4.3678,4.3682,4.3699,4.3707,4.3695,4.3696,4.3745,4.3746,4.3746,4.3749,0,0,0,0,0,0,4.3587,4.3593,4.3599,4.3615,4.3621,4.3647,4.3644,4.3646,4.3655,4.3655,4.367,4.3672,4.3678,4.3697,4.3701,4.3709,4.3697,4.3744,4.3745,4.3746,4.3749,4.375,4.3751,0,0,0,0,0,4.3585,4.3597,4.3599,4.3604,4.3629,4.3647,4.3651,4.3658,4.3655,4.3662,4.3671,4.3672,4.3706,4.3699,4.3703,4.3712,4.3744,4.3745,4.3746,4.3748,4.375,4.3751,0,0,0,0,0,0,4.3579,4.3599,4.3602,4.3619,4.3632,4.3648,4.3656,4.3659,4.3672,4.3672,4.368,4.3683,4.3701,4.3708,4.37,4.373,4.3725,4.3727,4.3725,4.3726,4.3728,4.3726,4.3698,0,0,0,0,0,4.358,4.3594,4.361,4.3624,4.3631,4.3643,4.3651,4.3656,4.3669,4.3674,4.3684,4.3696,4.371,4.3718,4.3731,4.375,4.3754,4.3758,4.3759,4.3761,4.3762,4.3775,4.3778,4.3751,4.3751,4.3751,0,0,4.3582,4.3595,4.3602,4.3623,4.3634,4.3648,4.3647,4.3661,4.3672,4.3675,4.3693,4.3702,4.3716,4.3735,4.3743,4.3741,4.3771,4.3762,4.3763,4.3764,4.3777,4.378,4.3782,4.3751,4.3751,4.3751,0,0,4.3592,4.3603,4.3617,4.3628,4.3645,4.3653,4.3657,4.3673,4.3679,4.3698,4.3702,4.3715,4.3737,4.3748,4.3757,4.3775,4.3777,4.3779,4.3787,4.3799,4.3802,4.3804,4.3812,4.3815,4.3781,4.3781,4.3781,0,4.3592,4.3614,4.3623,4.3639,4.3649,4.3655,4.367,4.368,4.3699,4.3707,4.3704,4.3735,4.3745,4.3768,4.3773,4.3778,4.3784,4.3778,4.3801,4.3803,4.3805,4.3813,4.3816,4.3781,4.3781,4.3781,4.3781,0,4.3614,4.3629,4.3639,4.366,4.3671,4.3686,4.3698,4.3708,4.3713,4.3722,4.3742,4.3755,4.3772,4.3778,4.3781,4.3802,4.38,4.3799,4.3794,4.3808,4.3816,4.3819,4.3782,4.3782,4.3781,4.3781,0,0,4.3619,4.3648,4.3651,4.3663,4.3683,4.3695,4.3711,4.3729,4.3739,4.3753,4.3767,4.3788,4.3789,4.3798,4.3804,4.3815,4.3832,4.3813,4.3813,4.3817,4.3858,4.386,4.3863,4.3833,4.3834,4.3834,4.3857,0,4.3633,4.3663,4.3674,4.3699,4.3714,4.3722,4.3737,4.3751,4.376,4.3775,4.3785,4.3801,4.3799,4.3805,4.3816,4.3827,4.384,4.3826,4.3848,4.3848,4.3845,4.3867,4.3868,4.3889,4.386,4.3861,4.3861,0,4.3653,4.367,4.3697,4.3719,4.3725,4.3738,4.3758,4.3772,4.3789,4.3795,4.3808,4.3814,4.3832,4.3826,4.3852,4.3842,4.3852,4.3859,4.386,4.3863,4.3856,4.3872,4.3895,4.3899,4.3866,4.3865,4.3865,0,4.3657,4.3686,4.3707,4.3716,4.3741,4.375,4.3761,4.3778,4.3789,4.3806,4.3814,4.3832,4.3842,4.3857,4.3868,4.3862,4.3894,4.3888,4.39,4.39,4.3906,4.3906,4.3934,4.3911,4.3911,4.3911,4.3911,0,4.3671,4.3688,4.3709,4.3722,4.3742,4.3754,4.3773,4.3785,4.38,4.3816,4.3823,4.3838,4.3851,4.3867,4.3876,4.3898,4.3901,4.3908,4.391,4.3908,4.3907,4.3915,4.3914,4.3912,4.3911,4.3911,4.3911,0,4.3678,4.3693,4.3717,4.374,4.3746,4.376,4.378,4.3793,4.3804,4.3824,4.383,4.3847,4.3867,4.388,4.3904,4.391,4.3935,4.3935,4.3929,4.3931,4.3943,4.3942,4.3977,4.3983,4.3955,4.3955,4.3956,0,4.3687,4.3701,4.3726,4.3739,4.375,4.3768,4.3781,4.3795,4.3808,4.3831,4.3842,4.3863,4.3881,4.3913,4.3927,4.3947,4.395,4.3961,4.3952,4.3951,4.3952,4.3952,4.3954,4.3962,4.3962,4.3962,4.3962,0,4.3702,4.371,4.3728,4.3751,4.3766,4.3784,4.3801,4.3811,4.3828,4.3842,4.3864,4.3878,4.3906,4.3927,4.3949,4.396,4.3965,4.3965,4.3969,4.3968,4.3964,4.3968,4.3935,4.3964,4.3964,4.3964,4.3964,4.3964,4.3711,4.3725,4.3746,4.3768,4.3783,4.38,4.3815,4.383,4.3849,4.3873,4.388,4.3904,4.3923,4.3954,4.3966,4.3985,4.3983,4.3988,4.399,4.3992,4.3993,4.3961,4.3988,4.3988,4.3988,4.3988,4.3988,0,4.3728,4.3743,4.3763,4.3789,4.3806,4.3811,4.3832,4.3846,4.3867,4.3886,4.3904,4.3931,4.3953,4.3971,4.3993,4.4005,4.4008,4.4011,4.401,4.4014,4.3992,4.3987,4.4008,4.4008,4.4008,4.4008,4.4008,4.4008,4.3738,4.3763,4.3774,4.3807,4.3822,4.3846,4.3858,4.3875,4.389,4.392,4.3939,4.3951,4.397,4.3995,4.4016,4.4021,4.4029,4.4032,4.4037,4.4017,4.4015,4.4013,4.4008,4.4033,4.4033,4.4058,4.4058,4.4058]}]]